Location: Phoenix
(33.4480°N, 112.0730°W)
Time: 19:39:36
(UTC-07:00)

ISS - All Passes

Search period start: 16 December 2017 00:00
Search period end: 26 December 2017 00:00
Orbit: 402 x 406 km, 51.6° (Epoch: 17 December)

Date Brightness Start Highest point End Pass type
(mag) Time Alt. Az. Time Alt. Az. Time Alt. Az.
16 Dec - 10:17:16 10° SSW 10:20:23 43° SE 10:23:31 10° ENE daylight
16 Dec - 11:54:48 10° WNW 11:57:00 17° NNW 11:59:13 10° N daylight
16 Dec - 16:49:42 10° N 16:50:52 11° NNE 16:52:01 10° NE daylight
16 Dec - 18:24:27 10° NW 18:27:44 86° SW 18:30:59 10° SE visible
17 Dec - 09:25:47 10° S 09:28:15 20° SE 09:30:44 10° E daylight
17 Dec - 11:01:41 10° W 11:04:35 29° NW 11:07:30 10° NNE daylight
17 Dec - 17:32:19 10° NNW 17:35:27 42° NE 17:38:34 10° ESE daylight
17 Dec - 19:10:01 10° W 19:11:37 13° SW 19:13:13 10° SSW visible
18 Dec - 10:09:00 10° WSW 10:12:14 59° NW 10:15:29 10° NE daylight
18 Dec - 16:40:24 10° NNW 16:43:04 22° NE 16:45:43 10° E daylight
18 Dec - 18:16:40 10° WNW 18:19:31 27° SW 18:22:20 10° S visible
19 Dec - 09:16:45 10° SW 09:19:58 59° SE 09:23:12 10° NE daylight
19 Dec - 10:54:53 10° WNW 10:56:42 14° NNW 10:58:32 10° N daylight
19 Dec - 15:48:50 10° N 15:50:33 13° NNE 15:52:17 10° ENE daylight
19 Dec - 17:24:04 10° NW 17:27:19 64° SW 17:30:33 10° SE daylight
20 Dec - 08:25:01 10° S 08:27:47 26° SE 08:30:34 10° ENE daylight
20 Dec - 10:01:30 10° W 10:04:12 23° NW 10:06:55 10° NNE daylight
20 Dec - 16:31:48 10° NW 16:35:02 55° NE 16:38:15 10° ESE daylight
21 Dec - 07:34:15 10° SSE 07:35:39 12° SE 07:37:03 10° E daylight
21 Dec - 09:08:38 10° WSW 09:11:48 44° NW 09:14:57 10° NE daylight
21 Dec - 15:39:46 10° NNW 15:42:38 27° NE 15:45:30 10° E daylight
21 Dec - 17:16:26 10° WNW 17:18:59 21° SW 17:21:32 10° S daylight
22 Dec - 08:16:11 10° SW 08:19:27 81° SE 08:22:44 10° NE daylight
22 Dec - 09:54:58 10° NW 09:56:17 12° NNW 09:57:37 10° N daylight
22 Dec - 14:48:01 10° N 14:50:08 16° NNE 14:52:15 10° ENE daylight
22 Dec - 16:23:37 10° WNW 16:26:48 47° SW 16:29:56 10° SSE daylight
23 Dec - 07:24:13 10° SSW 07:27:11 34° SE 07:30:12 10° ENE daylight
23 Dec - 09:01:16 10° W 09:03:43 19° NW 09:06:12 10° NNE daylight
23 Dec - 15:31:13 10° NW 15:34:30 74° NE 15:37:45 10° SE daylight
24 Dec - 06:32:56 10° SSE 06:35:01 16° SE 06:37:05 10° E visible
24 Dec - 08:08:12 10° WSW 08:11:14 35° NW 08:14:17 10° NNE daylight
24 Dec - 14:39:03 10° NNW 14:42:05 34° NE 14:45:06 10° ESE daylight
24 Dec - 16:16:11 10° W 16:18:20 16° SW 16:20:29 10° S daylight
25 Dec - 07:15:35 10° SW 07:18:50 76° NW 07:22:07 10° NE daylight
25 Dec - 08:55:30 10° NNW 08:55:47 10° NNW 08:56:04 10° NNW daylight
25 Dec - 13:47:09 10° NNW 13:49:35 19° NE 13:52:00 10° E daylight
25 Dec - 15:23:06 10° WNW 15:26:07 35° SW 15:29:08 10° SSE daylight
